Location: Grambois
(43.7619°N, 5.5873°E)
Time: 09:19:41
(UTC+00:00)

BREEZE-M DEB (TANK) - Pass Details

Date: 06 October 2020
Orbit: 333 x 12040 km, 49.7° (Epoch: 22 October)

Event Time Altitude Azimuth Distance (km) Brightness Sun altitude
Rises 03:46:33 0° 205° (SSW) 14,077 8.9 -21.4°
Reaches altitude 10° 03:58:02 10° 204° (SSW) 14,242 8.9 -19.4°
Maximum altitude 05:36:05 78° 136° (SE) 9,045 8.4 -1.8°
Drops below altitude 10° 06:10:33 10° 61° (ENE) 6,910 8.6 4.3°
Sets 06:13:46 0° 60° (ENE) 7,197 8.6 4.9°
